Location: Shepherdstown, WV
(39.4326°N, 77.8042°W)
Time: 11:12:30
(UTC-04:00)

S-56A Canister/Altair - Pass Details

Date: 29 July 2021
Orbit: 632 x 2500 km, 38.9° (Epoch: 19 September)

Event Time Altitude Azimuth Distance (km) Brightness Sun altitude
Rises 20:42:53 0° 281° (W) 6,165 13.9 -3.7°
Reaches altitude 10° 20:46:56 10° 280° (W) 5,166 13.2 -4.4°
Maximum altitude 21:02:01 77° 198° (SSW) 2,281 9.9 -6.9°
Drops below altitude 10° 21:13:34 10° 115° (ESE) 4,074 10.5 -8.8°
Enters shadow 21:13:41 10° 115° (ESE) 4,102 10.6 -8.8°
